User: anonymous   Login
Location: Mauna Kea VIS
(19.7591°N, 155.4561°W)
Time: 13:30:04
(UTC-10:00)
Language:

Cosmos 1624 Rocket - Orbit

View from above orbital plane
View from above orbital plane
View from above satellite
View from above satellite

Ground track
Ground track

The orbit data is extracted from the following two-line orbital elements,

1 15483U 85006B   16242.39316735  .00000045  00000-0  24580-4 0  9994
2 15483  74.0467 170.7490 0019728 226.0963 273.1159 14.36134834654666
Epoch (UTC): 29 August 2016 09:26:09
Eccentricity: 0.0019728
inclination: 74.0467°
perigee height: 757 km
apogee height: 785 km
right ascension of ascending node: 170.7490°
argument of perigee: 226.0963°
revolutions per day: 14.36134834
mean anomaly at epoch: 273.1159°
orbit number at epoch: 65466

The dashed part of the orbit path shows where the satellite is in the earth's shadow,  

DLR